Location: Chrome
(40.5765°N, 74.2163°W)
Time: 03:28:54
(UTC+00:00)

Cosmos 1346 Rocket - Pass Details

Date: 06 December 2019
Orbit: 524 x 555 km, 81.2° (Epoch: 20 January)

Event Time Altitude Azimuth Distance (km) Brightness Sun altitude
Rises 22:34:07 0° 342° (NNW) 2,694 6.3 -11.9°
Reaches altitude 10° 22:36:21 10° 334° (NNW) 1,804 5.5 -12.3°
Maximum altitude 22:40:03 38° 266° (W) 833 4.4 -13.0°
Drops below altitude 10° 22:43:45 10° 197° (SSW) 1,807 5.9 -13.7°
Sets 22:46:00 0° 190° (S) 2,700 6.7 -14.1°
